| time (UTC) | temp F | wind direction | speed MPH | gust MPH | rain 1hr in | rain 24hr in | rain mn in | humidity % | barometer mb |
| 20260502225441 | 70 | 146 | 1.0 | 2.0 | 0.00 | 0.00 | 0.00 | 26 | 1016.5 |
| 20260502224945 | 70 | 125 | 1.0 | 4.0 | 0.00 | 0.00 | 0.00 | 28 | 1016.6 |
| 20260502224443 | 68 | 142 | 2.0 | 6.0 | 0.00 | 0.00 | 0.00 | 30 | 1016.6 |
| 20260502223945 | 69 | 94 | 2.0 | 6.0 | 0.00 | 0.00 | 0.00 | 28 | 1016.6 |
| 20260502223444 | 69 | 82 | 1.0 | 6.0 | 0.00 | 0.00 | 0.00 | 31 | 1016.5 |
| 20260502223004 | 68 | 90 | 0.0 | 3.0 | 0.00 | 0.00 | 0.00 | 28 | 1016.7 |
| 20260502222444 | 67 | 119 | 0.0 | 3.0 | 0.00 | 0.00 | 0.00 | 30 | 1016.8 |
| 20260502221946 | 66 | 39 | 1.0 | 4.0 | 0.00 | 0.00 | 0.00 | 30 | 1016.8 |
| 20260502221446 | 66 | 77 | 1.0 | 6.0 | 0.00 | 0.00 | 0.00 | 31 | 1017.1 |
| 20260502221006 | 66 | 57 | 2.0 | 6.0 | 0.00 | 0.00 | 0.00 | 32 | 1017.2 |
| 20260502220444 | 66 | 60 | 2.0 | 10.0 | 0.00 | 0.00 | 0.00 | 29 | 1017.2 |
| 20260502220010 | 67 | 20 | 4.0 | 10.0 | 0.00 | 0.00 | 0.00 | 28 | 1017.1 |
| 20260502215441 | 69 | 49 | 4.0 | 10.0 | 0.00 | 0.00 | 0.00 | 28 | 1017.2 |
| 20260502214942 | 69 | 51 | 3.0 | 8.0 | 0.00 | 0.00 | 0.00 | 30 | 1017.2 |
| 20260502214443 | 68 | 52 | 3.0 | 8.0 | 0.00 | 0.00 | 0.00 | 28 | 1017.4 |
| 20260502213944 | 69 | 49 | 3.0 | 7.0 | 0.00 | 0.00 | 0.00 | 28 | 1017.5 |
| 20260502213441 | 68 | 14 | 3.0 | 7.0 | 0.00 | 0.00 | 0.00 | 31 | 1017.7 |
| 20260502212447 | 69 | 12 | 3.0 | 8.0 | 0.00 | 0.00 | 0.00 | 31 | 1017.6 |
| 20260502212008 | 68 | 219 | 2.0 | 8.0 | 0.00 | 0.00 | 0.00 | 33 | 1017.4 |
| 20260502211447 | 68 | 134 | 1.0 | 6.0 | 0.00 | 0.00 | 0.00 | 32 | 1017.8 |
| 20260502210947 | 68 | 129 | 2.0 | 7.0 | 0.00 | 0.00 | 0.00 | 32 | 1017.8 |
| 20260502210508 | 67 | 154 | 3.0 | 8.0 | 0.00 | 0.00 | 0.00 | 33 | 1017.8 |
| 20260502205947 | 67 | 111 | 3.0 | 8.0 | 0.00 | 0.00 | 0.00 | 30 | 1018.1 |
| 20260502205447 | 68 | 103 | 1.0 | 6.0 | 0.00 | 0.00 | 0.00 | 32 | 1018.0 |
| 20260502204947 | 68 | 142 | 2.0 | 6.0 | 0.00 | 0.00 | 0.00 | 31 | 1018.1 |
| 20260502204447 | 67 | 192 | 2.0 | 6.0 | 0.00 | 0.00 | 0.00 | 31 | 1018.4 |
| 20260502203947 | 66 | 199 | 2.0 | 6.0 | 0.00 | 0.00 | 0.00 | 33 | 1018.3 |
| 20260502203447 | 67 | 51 | 2.0 | 6.0 | 0.00 | 0.00 | 0.00 | 34 | 1018.4 |
| 20260502202947 | 67 | 127 | 2.0 | 4.0 | 0.00 | 0.00 | 0.00 | 36 | 1018.3 |
| 20260502202508 | 68 | 138 | 2.0 | 6.0 | 0.00 | 0.00 | 0.00 | 34 | 1018.9 |
| 20260502202008 | 68 | 131 | 2.0 | 7.0 | 0.00 | 0.00 | 0.00 | 34 | 1018.6 |
| 20260502201447 | 67 | 170 | 2.0 | 7.0 | 0.00 | 0.00 | 0.00 | 35 | 1019.0 |
| 20260502201008 | 68 | 241 | 2.0 | 7.0 | 0.00 | 0.00 | 0.00 | 33 | 1018.8 |
| 20260502200447 | 67 | 174 | 2.0 | 8.0 | 0.00 | 0.00 | 0.00 | 33 | 1019.0 |
| 20260502195947 | 66 | 73 | 3.0 | 8.0 | 0.00 | 0.00 | 0.00 | 34 | 1019.1 |
| 20260502195447 | 66 | 126 | 3.0 | 8.0 | 0.00 | 0.00 | 0.00 | 34 | 1019.0 |
| 20260502194947 | 66 | 138 | 2.0 | 7.0 | 0.00 | 0.00 | 0.00 | 34 | 1019.3 |
| 20260502194508 | 66 | 116 | 2.0 | 7.0 | 0.00 | 0.00 | 0.00 | 34 | 1019.3 |
| 20260502193948 | 66 | 167 | 2.0 | 7.0 | 0.00 | 0.00 | 0.00 | 35 | 1019.2 |
| 20260502193447 | 65 | 159 | 2.0 | 10.0 | 0.00 | 0.00 | 0.00 | 36 | 1019.3 |
| 20260502193008 | 64 | 97 | 2.0 | 10.0 | 0.00 | 0.00 | 0.00 | 40 | 1019.5 |
| 20260502192447 | 64 | 135 | 1.0 | 6.0 | 0.00 | 0.00 | 0.00 | 40 | 1019.3 |
| 20260502191947 | 62 | 106 | 1.0 | 4.0 | 0.00 | 0.00 | 0.00 | 41 | 1019.5 |
| 20260502191508 | 62 | 57 | 1.0 | 4.0 | 0.00 | 0.00 | 0.00 | 38 | 1019.4 |
| 20260502190947 | 64 | 130 | 2.0 | 6.0 | 0.00 | 0.00 | 0.00 | 35 | 1019.6 |
| 20260502190447 | 64 | 34 | 2.0 | 6.0 | 0.00 | 0.00 | 0.00 | 35 | 1019.5 |
| 20260502185947 | 64 | 90 | 2.0 | 7.0 | 0.00 | 0.00 | 0.00 | 36 | 1019.9 |
| 20260502185447 | 65 | 53 | 3.0 | 7.0 | 0.00 | 0.00 | 0.00 | 38 | 1019.7 |
| 20260502184947 | 65 | 33 | 2.0 | 7.0 | 0.00 | 0.00 | 0.00 | 37 | 1019.9 |
| 20260502184508 | 64 | 179 | 2.0 | 7.0 | 0.00 | 0.00 | 0.00 | 35 | 1020.1 |
| 20260502183947 | 64 | 21 | 2.0 | 7.0 | 0.00 | 0.00 | 0.00 | 36 | 1020.1 |
| 20260502183447 | 64 | 47 | 2.0 | 7.0 | 0.00 | 0.00 | 0.00 | 35 | 1020.1 |
| 20260502182946 | 64 | 165 | 1.0 | 6.0 | 0.00 | 0.00 | 0.00 | 35 | 1020.2 |
| 20260502182508 | 62 | 146 | 1.0 | 6.0 | 0.00 | 0.00 | 0.00 | 39 | 1020.1 |
| 20260502181947 | 62 | 70 | 2.0 | 7.0 | 0.00 | 0.00 | 0.00 | 36 | 1020.2 |
| 20260502181447 | 62 | 120 | 3.0 | 8.0 | 0.00 | 0.00 | 0.00 | 38 | 1020.3 |
| 20260502180947 | 63 | 127 | 3.0 | 8.0 | 0.00 | 0.00 | 0.00 | 41 | 1020.3 |
| 20260502180446 | 62 | 119 | 3.0 | 8.0 | 0.00 | 0.00 | 0.00 | 40 | 1020.3 |
| 20260502170447 | 60 | 77 | 3.0 | 9.0 | 0.00 | 0.00 | 0.00 | 39 | 1020.5 |
| 20260502161947 | 59 | 47 | 5.0 | 10.0 | 0.00 | 0.00 | 0.00 | 41 | 1020.6 |
| 20260502161447 | 59 | 43 | 5.0 | 10.0 | 0.00 | 0.00 | 0.00 | 41 | 1020.9 |
| 20260502160948 | 59 | 40 | 6.0 | 13.0 | 0.00 | 0.00 | 0.00 | 39 | 1020.6 |
| 20260502160448 | 59 | 45 | 5.0 | 13.0 | 0.00 | 0.00 | 0.00 | 41 | 1020.6 |
| 20260502151948 | 56 | 44 | 4.0 | 9.0 | 0.00 | 0.00 | 0.00 | 45 | 1020.8 |
| 20260502151448 | 56 | 46 | 4.0 | 9.0 | 0.00 | 0.00 | 0.00 | 44 | 1020.9 |
| 20260502150948 | 55 | 24 | 4.0 | 9.0 | 0.00 | 0.00 | 0.00 | 46 | 1020.8 |
| 20260502150448 | 55 | 23 | 4.0 | 9.0 | 0.00 | 0.00 | 0.00 | 46 | 1021.1 |
| 20260502130512 | 50 | 336 | 9.0 | 16.0 | 0.00 | 0.00 | 0.00 | 57 | 1019.4 |
| 20260502123516 | 48 | 313 | 8.0 | 14.0 | 0.00 | 0.00 | 0.00 | 58 | 1019.2 |
| 20260502122955 | 48 | 314 | 9.0 | 14.0 | 0.00 | 0.00 | 0.00 | 59 | 1019.1 |
| 20260502122455 | 48 | 301 | 9.0 | 14.0 | 0.00 | 0.00 | 0.00 | 59 | 1019.0 |
| 20260502121955 | 48 | 299 | 8.0 | 15.0 | 0.00 | 0.00 | 0.00 | 59 | 1018.8 |
| 20260502121455 | 48 | 311 | 8.0 | 15.0 | 0.00 | 0.00 | 0.00 | 59 | 1018.9 |
| 20260502120955 | 48 | 318 | 8.0 | 13.0 | 0.00 | 0.00 | 0.00 | 59 | 1018.9 |
| 20260502120455 | 48 | 310 | 9.0 | 14.0 | 0.00 | 0.00 | 0.00 | 58 | 1018.6 |
| 20260502115455 | 48 | 329 | 9.0 | 15.0 | 0.00 | 0.00 | 0.00 | 58 | 1018.6 |
| 20260502114955 | 48 | 326 | 10.0 | 16.0 | 0.00 | 0.00 | 0.00 | 58 | 1018.8 |
| 20260502114516 | 49 | 342 | 10.0 | 17.0 | 0.00 | 0.00 | 0.00 | 57 | 1018.9 |
| 20260502113955 | 49 | 303 | 10.0 | 17.0 | 0.00 | 0.00 | 0.00 | 57 | 1018.5 |
| 20260502113516 | 49 | 317 | 10.0 | 15.0 | 0.00 | 0.00 | 0.00 | 57 | 1018.6 |
| 20260502112955 | 49 | 307 | 10.0 | 16.0 | 0.00 | 0.00 | 0.00 | 57 | 1018.6 |
| 20260502112516 | 49 | 314 | 10.0 | 16.0 | 0.00 | 0.00 | 0.00 | 57 | 1018.8 |
| 20260502111955 | 49 | 305 | 10.0 | 16.0 | 0.00 | 0.00 | 0.00 | 56 | 1018.4 |
| 20260502111516 | 49 | 314 | 10.0 | 16.0 | 0.00 | 0.00 | 0.00 | 56 | 1018.6 |
| 20260502111016 | 49 | 296 | 10.0 | 16.0 | 0.00 | 0.00 | 0.00 | 57 | 1018.3 |
| 20260502110455 | 49 | 304 | 9.0 | 17.0 | 0.00 | 0.00 | 0.00 | 57 | 1018.4 |
| 20260502105955 | 49 | 315 | 10.0 | 17.0 | 0.00 | 0.00 | 0.00 | 56 | 1018.4 |
| 20260502105516 | 49 | 309 | 10.0 | 16.0 | 0.00 | 0.00 | 0.00 | 56 | 1018.3 |
| 20260502104955 | 49 | 307 | 9.0 | 16.0 | 0.00 | 0.00 | 0.00 | 56 | 1018.2 |
| 20260502104455 | 49 | 305 | 8.0 | 15.0 | 0.00 | 0.00 | 0.00 | 57 | 1018.1 |
| 20260502104016 | 49 | 300 | 8.0 | 15.0 | 0.00 | 0.00 | 0.00 | 56 | 1018.1 |
| 20260502103455 | 49 | 313 | 9.0 | 14.0 | 0.00 | 0.00 | 0.00 | 56 | 1018.1 |
| 20260502102955 | 49 | 307 | 8.0 | 14.0 | 0.00 | 0.00 | 0.00 | 56 | 1018.1 |
| 20260502102455 | 49 | 286 | 8.0 | 15.0 | 0.00 | 0.00 | 0.00 | 56 | 1018.1 |
| 20260502101955 | 49 | 317 | 9.0 | 15.0 | 0.00 | 0.00 | 0.00 | 56 | 1018.1 |
| 20260502101455 | 49 | 303 | 8.0 | 15.0 | 0.00 | 0.00 | 0.00 | 56 | 1017.8 |
| 20260502100955 | 49 | 311 | 8.0 | 14.0 | 0.00 | 0.00 | 0.00 | 55 | 1017.8 |
| 20260502100455 | 49 | 306 | 8.0 | 14.0 | 0.00 | 0.00 | 0.00 | 54 | 1018.1 |
| 20260502091501 | 44 | 252 | 3.0 | 3.0 | 0.00 | 0.00 | 0.00 | 51 | 1016.9 |
| 20260502091001 | 44 | 258 | 2.0 | 3.0 | 0.00 | 0.00 | 0.00 | 52 | 1016.6 |
| 20260502090501 | 43 | 266 | 2.0 | 3.0 | 0.00 | 0.00 | 0.00 | 52 | 1016.8 |
| 20260502071501 | 45 | 0 | 0.0 | 1.0 | 0.00 | 0.00 | 0.00 | 45 | 1016.9 |
| 20260502071001 | 44 | 0 | 0.0 | 1.0 | 0.00 | 0.00 | 0.00 | 46 | 1016.9 |
| 20260502070501 | 46 | 68 | 0.0 | 3.0 | 0.00 | 0.00 | 0.00 | 44 | 1016.8 |
| 20260502070001 | 47 | 136 | 1.0 | 3.0 | 0.00 | 0.00 | 0.00 | 42 | 1016.8 |
| 20260502065501 | 47 | 269 | 1.0 | 3.0 | 0.00 | 0.00 | 0.00 | 42 | 1016.8 |
| 20260502065001 | 46 | 44 | 1.0 | 2.0 | 0.00 | 0.00 | 0.00 | 42 | 1016.7 |
| 20260502064501 | 47 | 16 | 1.0 | 2.0 | 0.00 | 0.00 | 0.00 | 42 | 1016.8 |
| 20260502064001 | 46 | 35 | 2.0 | 3.0 | 0.00 | 0.00 | 0.00 | 43 | 1016.7 |
| 20260502063501 | 47 | 296 | 2.0 | 3.0 | 0.00 | 0.00 | 0.00 | 42 | 1016.8 |
| 20260502063001 | 46 | 267 | 1.0 | 2.0 | 0.00 | 0.00 | 0.00 | 42 | 1016.6 |
| 20260502062501 | 45 | 167 | 0.0 | 2.0 | 0.00 | 0.00 | 0.00 | 44 | 1016.7 |
| 20260502062001 | 44 | 0 | 0.0 | 0.0 | 0.00 | 0.01 | 0.00 | 45 | 1016.8 |
| 20260502061501 | 44 | 0 | 0.0 | 0.0 | 0.00 | 0.01 | 0.00 | 45 | 1016.7 |
| 20260502061022 | 46 | 0 | 0.0 | 1.0 | 0.00 | 0.01 | 0.00 | 44 | 1016.7 |
| 20260502060501 | 47 | 80 | 0.0 | 1.0 | 0.00 | 0.01 | 0.00 | 41 | 1016.7 |
| 20260502060023 | 46 | 53 | 0.0 | 1.0 | 0.00 | 0.01 | 0.00 | 42 | 1016.7 |
| 20260502055501 | 46 | 146 | 0.0 | 1.0 | 0.00 | 0.01 | 0.00 | 42 | 1016.7 |
| 20260502055001 | 46 | 0 | 0.0 | 0.0 | 0.00 | 0.01 | 0.00 | 41 | 1016.5 |
| 20260502054522 | 45 | 0 | 0.0 | 0.0 | 0.00 | 0.01 | 0.00 | 41 | 1016.4 |
| 20260502054001 | 45 | 0 | 0.0 | 0.0 | 0.00 | 0.01 | 0.00 | 42 | 1016.4 |
| 20260502053501 | 46 | 0 | 0.0 | 0.0 | 0.00 | 0.01 | 0.00 | 42 | 1016.5 |
| 20260502053022 | 46 | 0 | 0.0 | 0.0 | 0.00 | 0.01 | 0.00 | 42 | 1016.6 |
| 20260502052501 | 46 | 0 | 0.0 | 0.0 | 0.00 | 0.01 | 0.00 | 41 | 1016.6 |
| 20260502052001 | 46 | 0 | 0.0 | 0.0 | 0.00 | 0.01 | 0.00 | 42 | 1016.5 |
| 20260502051501 | 46 | 0 | 0.0 | 2.0 | 0.00 | 0.01 | 0.00 | 43 | 1016.5 |
| 20260502051001 | 47 | 0 | 1.0 | 2.0 | 0.00 | 0.01 | 0.00 | 42 | 1016.5 |
| 20260502050501 | 46 | 149 | 1.0 | 2.0 | 0.00 | 0.01 | 0.00 | 41 | 1016.5 |
| 20260502050001 | 47 | 67 | 1.0 | 3.0 | 0.00 | 0.01 | 0.00 | 40 | 1016.5 |
| 20260502045501 | 48 | 55 | 2.0 | 3.0 | 0.00 | 0.01 | 0.00 | 39 | 1016.3 |
| 20260502045001 | 48 | 278 | 2.0 | 3.0 | 0.00 | 0.01 | 0.00 | 39 | 1016.3 |
| 20260502044501 | 49 | 291 | 2.0 | 3.0 | 0.00 | 0.01 | 0.00 | 38 | 1016.4 |
| 20260502044001 | 49 | 26 | 2.0 | 3.0 | 0.00 | 0.01 | 0.00 | 38 | 1016.4 |
| 20260502043522 | 49 | 296 | 3.0 | 3.0 | 0.00 | 0.01 | 0.00 | 38 | 1016.4 |
| 20260502043001 | 49 | 295 | 3.0 | 3.0 | 0.00 | 0.01 | 0.00 | 38 | 1016.1 |
| 20260502042522 | 50 | 301 | 3.0 | 3.0 | 0.00 | 0.01 | 0.00 | 38 | 1016.4 |
| 20260502042022 | 50 | 298 | 3.0 | 3.0 | 0.00 | 0.01 | 0.00 | 37 | 1016.5 |
| 20260502041522 | 51 | 319 | 3.0 | 7.0 | 0.00 | 0.01 | 0.00 | 36 | 1016.4 |
| 20260502041022 | 51 | 294 | 4.0 | 7.0 | 0.00 | 0.01 | 0.00 | 36 | 1016.3 |
| 20260502040501 | 51 | 263 | 5.0 | 7.0 | 0.00 | 0.01 | 0.00 | 36 | 1016.3 |
| 20260502040022 | 50 | 270 | 4.0 | 7.0 | 0.00 | 0.01 | 0.00 | 35 | 1016.3 |
| 20260502035501 | 51 | 267 | 5.0 | 8.0 | 0.00 | 0.01 | 0.00 | 35 | 1016.2 |
| 20260502035001 | 51 | 270 | 5.0 | 8.0 | 0.00 | 0.01 | 0.00 | 34 | 1016.2 |
| 20260502034504 | 48 | 263 | 3.0 | 6.0 | 0.00 | 0.01 | 0.00 | 38 | 1016.1 |
| 20260502034025 | 47 | 254 | 1.0 | 3.0 | 0.00 | 0.01 | 0.00 | 39 | 1016.3 |
| 20260502033504 | 47 | 149 | 1.0 | 3.0 | 0.00 | 0.01 | 0.00 | 40 | 1016.4 |
| 20260502033004 | 47 | 113 | 1.0 | 3.0 | 0.00 | 0.01 | 0.00 | 42 | 1016.2 |
| 20260502032503 | 47 | 155 | 1.0 | 3.0 | 0.00 | 0.01 | 0.00 | 41 | 1016.2 |
| 20260502032004 | 48 | 122 | 1.0 | 2.0 | 0.00 | 0.01 | 0.00 | 43 | 1016.0 |
| 20260502031504 | 49 | 143 | 1.0 | 3.0 | 0.00 | 0.01 | 0.00 | 38 | 1016.1 |
| 20260502031004 | 50 | 69 | 1.0 | 3.0 | 0.00 | 0.01 | 0.00 | 37 | 1015.8 |
| 20260502030525 | 51 | 19 | 2.0 | 3.0 | 0.00 | 0.01 | 0.00 | 37 | 1015.7 |
| 20260502030004 | 52 | 355 | 2.0 | 3.0 | 0.00 | 0.01 | 0.00 | 35 | 1015.7 |
| 20260502025504 | 53 | 1 | 1.0 | 3.0 | 0.00 | 0.01 | 0.00 | 33 | 1015.6 |
| 20260502025025 | 54 | 48 | 1.0 | 2.0 | 0.00 | 0.01 | 0.00 | 32 | 1015.6 |
| 20260502024504 | 54 | 48 | 1.0 | 2.0 | 0.00 | 0.01 | 0.00 | 32 | 1015.6 |
| 20260502024025 | 54 | 24 | 2.0 | 3.0 | 0.00 | 0.01 | 0.00 | 31 | 1015.6 |
| 20260502023504 | 54 | 6 | 2.0 | 3.0 | 0.00 | 0.01 | 0.00 | 31 | 1015.5 |
| 20260502023004 | 56 | 255 | 1.0 | 3.0 | 0.00 | 0.01 | 0.00 | 31 | 1015.6 |
| 20260502022503 | 56 | 46 | 1.0 | 2.0 | 0.00 | 0.01 | 0.00 | 31 | 1015.6 |
| 20260502022025 | 57 | 32 | 1.0 | 3.0 | 0.00 | 0.01 | 0.00 | 30 | 1015.4 |
| 20260502021504 | 58 | 49 | 1.0 | 3.0 | 0.00 | 0.01 | 0.00 | 28 | 1015.4 |
| 20260502021024 | 59 | 45 | 1.0 | 2.0 | 0.00 | 0.01 | 0.00 | 28 | 1015.3 |
| 20260502020504 | 60 | 49 | 1.0 | 2.0 | 0.00 | 0.01 | 0.00 | 27 | 1015.3 |
| 20260502020004 | 61 | 46 | 1.0 | 3.0 | 0.00 | 0.01 | 0.00 | 27 | 1015.3 |
| 20260502015504 | 62 | 52 | 1.0 | 3.0 | 0.00 | 0.01 | 0.00 | 26 | 1015.2 |
| 20260502015004 | 64 | 4 | 2.0 | 3.0 | 0.00 | 0.01 | 0.00 | 25 | 1015.3 |
| 20260502014525 | 66 | 43 | 2.0 | 3.0 | 0.00 | 0.01 | 0.00 | 23 | 1015.3 |
| 20260502014004 | 68 | 38 | 2.0 | 6.0 | 0.00 | 0.01 | 0.00 | 21 | 1015.3 |
| 20260502013504 | 70 | 12 | 3.0 | 7.0 | 0.00 | 0.01 | 0.00 | 21 | 1015.3 |
| 20260502013004 | 71 | 16 | 3.0 | 7.0 | 0.00 | 0.01 | 0.00 | 19 | 1015.0 |
| 20260502012525 | 72 | 352 | 3.0 | 7.0 | 0.00 | 0.01 | 0.00 | 18 | 1015.2 |
| 20260502012004 | 73 | 356 | 3.0 | 6.0 | 0.00 | 0.01 | 0.00 | 18 | 1015.2 |
| 20260502011504 | 73 | 339 | 4.0 | 7.0 | 0.00 | 0.01 | 0.00 | 17 | 1015.0 |
| 20260502011003 | 73 | 315 | 4.0 | 7.0 | 0.00 | 0.01 | 0.00 | 16 | 1015.2 |
| 20260502010525 | 74 | 325 | 3.0 | 7.0 | 0.00 | 0.01 | 0.00 | 16 | 1015.3 |
| 20260502010004 | 73 | 5 | 2.0 | 7.0 | 0.00 | 0.01 | 0.00 | 18 | 1015.2 |
| 20260502005503 | 75 | 20 | 2.0 | 7.0 | 0.00 | 0.01 | 0.00 | 18 | 1015.0 |
| 20260502005004 | 76 | 358 | 1.0 | 7.0 | 0.00 | 0.01 | 0.00 | 17 | 1015.0 |
| 20260502004504 | 75 | 65 | 1.0 | 6.0 | 0.00 | 0.01 | 0.00 | 18 | 1015.2 |
| 20260502004004 | 74 | 108 | 1.0 | 7.0 | 0.00 | 0.01 | 0.00 | 20 | 1014.9 |
| 20260502003504 | 75 | 110 | 1.0 | 7.0 | 0.00 | 0.01 | 0.00 | 17 | 1015.0 |
| 20260502003004 | 75 | 121 | 1.0 | 4.0 | 0.00 | 0.01 | 0.00 | 19 | 1015.3 |
| 20260502002503 | 73 | 112 | 2.0 | 6.0 | 0.00 | 0.01 | 0.00 | 18 | 1015.0 |
| 20260502002004 | 73 | 130 | 3.0 | 7.0 | 0.00 | 0.01 | 0.00 | 22 | 1015.3 |
| 20260502001504 | 74 | 116 | 2.0 | 7.0 | 0.00 | 0.01 | 0.00 | 18 | 1015.0 |
| 20260502001004 | 76 | 118 | 1.0 | 7.0 | 0.00 | 0.01 | 0.00 | 17 | 1015.2 |
| 20260502000504 | 75 | 138 | 1.0 | 4.0 | 0.00 | 0.01 | 0.00 | 17 | 1015.2 |
| 20260502000004 | 76 | 93 | 2.0 | 4.0 | 0.00 | 0.01 | 0.00 | 19 | 1015.4 |
| 20260501235503 | 76 | 163 | 1.0 | 4.0 | 0.00 | 0.01 | 0.00 | 16 | 1015.4 |
| 20260501235004 | 74 | 46 | 1.0 | 3.0 | 0.00 | 0.01 | 0.00 | 18 | 1015.5 |
| 20260501234504 | 74 | 122 | 1.0 | 3.0 | 0.00 | 0.01 | 0.00 | 20 | 1015.5 |
| 20260501234003 | 73 | 127 | 1.0 | 3.0 | 0.00 | 0.01 | 0.00 | 21 | 1015.5 |
| 20260501233503 | 73 | 159 | 1.0 | 6.0 | 0.00 | 0.01 | 0.00 | 18 | 1015.2 |
| 20260501233004 | 74 | 123 | 1.0 | 6.0 | 0.00 | 0.01 | 0.00 | 21 | 1015.6 |
| 20260501232503 | 75 | 131 | 1.0 | 2.0 | 0.00 | 0.01 | 0.00 | 17 | 1015.5 |
| 20260501232004 | 76 | 153 | 1.0 | 3.0 | 0.00 | 0.01 | 0.00 | 17 | 1015.5 |
| 20260501231525 | 77 | 67 | 1.0 | 4.0 | 0.00 | 0.01 | 0.00 | 16 | 1015.5 |
| 20260501231003 | 76 | 15 | 2.0 | 6.0 | 0.00 | 0.01 | 0.00 | 17 | 1015.6 |
| 20260501230504 | 76 | 347 | 2.0 | 6.0 | 0.00 | 0.01 | 0.00 | 17 | 1015.6 |
| 20260501230004 | 76 | 211 | 2.0 | 9.0 | 0.00 | 0.01 | 0.00 | 17 | 1015.8 |